| time (UTC) | temp C | wind direction | speed KPH | gust KPH | rain 1hr cm | rain 24hr cm | rain mn cm | humidity % | barometer mb |
| 20260504185732 | 13 | 1 | 4.8 | 8.0 | 0.00 | 0.33 | 0.00 | 57 | 1014.2 |
| 20260504184232 | 13 | 336 | 8.0 | 16.1 | 0.00 | 0.33 | 0.00 | 57 | 1014.1 |
| 20260504182731 | 14 | 354 | 9.7 | 14.5 | 0.00 | 0.36 | 0.00 | 56 | 1013.8 |
| 20260504181232 | 14 | 3 | 8.0 | 11.3 | 0.00 | 0.38 | 0.00 | 57 | 1013.4 |
| 20260504175733 | 14 | 341 | 11.3 | 19.3 | 0.00 | 0.43 | 0.00 | 57 | 1012.9 |
| 20260504174231 | 14 | 345 | 9.7 | 16.1 | 0.00 | 0.43 | 0.00 | 58 | 1012.5 |
| 20260504172732 | 14 | 6 | 9.7 | 12.9 | 0.00 | 0.43 | 0.00 | 57 | 1012.2 |
| 20260504171232 | 14 | 4 | 11.3 | 19.3 | 0.00 | 0.43 | 0.00 | 57 | 1011.7 |
| 20260504141232 | 17 | 16 | 8.0 | 12.9 | 0.00 | 0.48 | 0.48 | 57 | 1007.3 |
| 20260504081232 | 24 | 206 | 11.3 | 22.5 | 0.00 | 0.48 | 0.48 | 47 | 996.1 |
| 20260504045731 | 26 | 207 | 19.3 | 32.2 | 0.00 | 0.48 | 0.48 | 61 | 993.4 |
| 20260504044232 | 27 | 211 | 20.9 | 41.8 | 0.00 | 0.48 | 0.48 | 61 | 993.4 |
| 20260504042732 | 27 | 202 | 16.1 | 37.0 | 0.00 | 0.48 | 0.48 | 60 | 993.5 |
| 20260504041231 | 27 | 208 | 24.1 | 37.0 | 0.00 | 0.48 | 0.48 | 60 | 993.6 |
| 20260504035732 | 27 | 212 | 16.1 | 37.0 | 0.00 | 0.48 | 0.48 | 62 | 993.7 |
| 20260504034233 | 27 | 205 | 20.9 | 29.0 | 0.00 | 0.48 | 0.48 | 61 | 994.0 |
| 20260504032731 | 27 | 198 | 19.3 | 29.0 | 0.00 | 0.48 | 0.48 | 61 | 993.9 |
| 20260504031232 | 28 | 203 | 14.5 | 29.0 | 0.00 | 0.48 | 0.48 | 61 | 994.5 |
| 20260504025732 | 28 | 196 | 16.1 | 29.0 | 0.00 | 0.48 | 0.48 | 63 | 994.9 |
| 20260504024231 | 27 | 200 | 9.7 | 19.3 | 0.00 | 0.48 | 0.48 | 65 | 995.1 |
| 20260504022731 | 27 | 237 | 14.5 | 19.3 | 0.00 | 0.48 | 0.48 | 66 | 995.2 |
| 20260504021232 | 27 | 194 | 11.3 | 25.7 | 0.00 | 0.48 | 0.48 | 67 | 995.1 |
| 20260504015733 | 27 | 209 | 14.5 | 32.2 | 0.00 | 0.48 | 0.48 | 68 | 995.2 |
| 20260504014231 | 26 | 230 | 11.3 | 20.9 | 0.00 | 0.48 | 0.48 | 70 | 995.6 |
| 20260504012732 | 26 | 196 | 14.5 | 24.1 | 0.00 | 0.48 | 0.48 | 72 | 995.6 |
| 20260504011842 | 26 | 215 | 12.9 | 19.3 | 0.00 | 0.48 | 0.48 | 72 | 995.6 |
| 20260504011233 | 26 | 213 | 16.1 | 22.5 | 0.00 | 0.48 | 0.48 | 72 | 995.6 |
| 20260504005731 | 26 | 214 | 12.9 | 20.9 | 0.00 | 0.48 | 0.48 | 74 | 995.7 |
| 20260504004232 | 26 | 214 | 9.7 | 25.7 | 0.00 | 0.48 | 0.48 | 75 | 995.8 |
| 20260504002733 | 26 | 216 | 16.1 | 20.9 | 0.00 | 0.48 | 0.48 | 77 | 995.7 |
| 20260504001231 | 25 | 206 | 12.9 | 37.0 | 0.00 | 0.48 | 0.48 | 80 | 995.7 |
| 20260503235732 | 25 | 198 | 19.3 | 33.8 | 0.00 | 0.48 | 0.48 | 82 | 995.8 |
| 20260503234233 | 23 | 195 | 19.3 | 40.2 | 0.00 | 0.48 | 0.48 | 85 | 995.7 |
| 20260503232731 | 23 | 209 | 16.1 | 32.2 | 0.00 | 0.48 | 0.48 | 87 | 995.6 |
| 20260503231232 | 23 | 203 | 14.5 | 20.9 | 0.00 | 0.48 | 0.48 | 88 | 995.7 |
| 20260503225733 | 23 | 206 | 11.3 | 14.5 | 0.00 | 0.48 | 0.48 | 88 | 995.9 |
| 20260503224231 | 23 | 203 | 16.1 | 37.0 | 0.00 | 0.48 | 0.48 | 89 | 995.9 |
| 20260503222733 | 23 | 193 | 16.1 | 19.3 | 0.00 | 0.48 | 0.48 | 90 | 996.2 |
| 20260503221231 | 22 | 221 | 16.1 | 38.6 | 0.00 | 0.48 | 0.48 | 90 | 995.9 |
| 20260503215732 | 22 | 212 | 16.1 | 29.0 | 0.00 | 0.48 | 0.48 | 90 | 995.6 |
| 20260503214233 | 22 | 204 | 19.3 | 56.3 | 0.03 | 0.48 | 0.48 | 90 | 995.2 |
| 20260503212731 | 21 | 192 | 22.5 | 38.6 | 0.03 | 0.48 | 0.48 | 90 | 995.0 |
| 20260503211232 | 21 | 201 | 16.1 | 24.1 | 0.15 | 0.48 | 0.48 | 90 | 995.5 |
| 20260503205732 | 21 | 211 | 12.9 | 29.0 | 0.28 | 0.48 | 0.48 | 90 | 995.4 |
| 20260503204232 | 21 | 184 | 16.1 | 37.0 | 0.33 | 0.46 | 0.46 | 90 | 995.7 |
| 20260503202731 | 21 | 192 | 14.5 | 29.0 | 0.33 | 0.46 | 0.46 | 90 | 995.7 |
| 20260503201232 | 21 | 203 | 14.5 | 14.5 | 0.18 | 0.33 | 0.33 | 90 | 996.1 |
| 20260503195732 | 21 | 187 | 16.1 | 38.6 | 0.05 | 0.20 | 0.20 | 90 | 996.3 |
| 20260503194231 | 21 | 207 | 16.1 | 29.0 | 0.00 | 0.15 | 0.15 | 90 | 996.4 |
| 20260503192732 | 21 | 204 | 16.1 | 38.6 | 0.03 | 0.15 | 0.15 | 90 | 996.5 |
| 20260503191231 | 21 | 205 | 22.5 | 37.0 | 0.05 | 0.15 | 0.15 | 90 | 996.7 |